[[{"header":{"parameterUnit":"m.s-1","parameterCategory":1,"la1":30.2991,"la2":30.254,"lo1":-89.0895,"lo2":-89.0444,"dy":0.0017,"dx":0.0017,"nx":28,"ny":28,"refTime":"2024-05-17T03:00:00:Z","depth":0,"parameterNumber":2,"parameterNumberName":"U-component_of_WINDS"},"data":[0,0,0,0,0,0,0,0,0,0,0,0,0,0,0,0,0,0,0,0,0,0,0,0,0,0,0,0,0,0,0,0,0,0,0,0,0,0,0,0,0,0,0,0,0,0,0,0,0,0,0,0,0,0,0,0,0,0,-4.5411,-4.5411,0,-4.5372,-4.5371,-4.5371,-4.5236,-4.5233,-4.523,-4.5227,-4.5189,-4.5191,-4.5193,0,0,0,0,0,0,0,0,0,0,0,0,0,-4.5375,-4.5376,-4.5411,-4.5411,-4.541,-4.5372,-4.5371,-4.5371,-4.5236,-4.5233,-4.5229,-4.5226,-4.5189,-4.5191,-4.5193,0,0,0,0,0,0,0,0,0,0,0,0,0,-4.5369,-4.5377,-4.5412,-4.5339,-4.5332,-4.5372,-4.5371,-4.537,-4.5237,-4.5233,-4.5228,-4.5224,-4.5188,-4.5191,-4.5193,-4.5301,0,0,-4.5202,-4.5203,0,0,0,0,0,0,0,0,-4.5369,-4.537,-4.535,-4.5344,-4.5336,-4.5304,-4.5344,-4.5347,-4.5238,-4.5273,-4.5227,-4.5222,-4.5231,-4.523,-4.5233,-4.53,-4.5298,-4.5202,-4.5204,-4.5205,-4.5206,0,0,0,0,0,0,0,-4.537,-4.5371,-4.5396,-4.535,-4.5341,-4.5309,-4.5303,-4.5344,-4.5278,-4.527,-4.526,-4.5257,-4.5227,-4.5231,-4.5231,-4.5297,-4.5202,-4.5204,-4.5206,-4.5207,-4.5452,-4.5456,0,0,0,0,0,0,-4.538,-4.5372,-4.5397,-4.5394,-4.5342,-4.5314,-4.5307,-4.5319,-4.5278,-4.5267,-4.5261,-4.5251,-4.5228,-4.5228,-4.5229,-4.5353,-4.5205,-4.5207,-4.5209,-4.5447,-4.5453,-4.5458,0,0,0,0,0,0,-4.538,-4.5384,-4.5399,-4.5381,-4.538,-4.5319,-4.5334,-4.5321,-4.5324,-4.5271,-4.5259,-4.5277,-4.5224,-4.5225,-4.5284,-4.5349,-4.5209,-4.5211,-4.5441,-4.5449,-4.5455,-4.5601,0,0,0,0,0,0,-4.5379,-4.5384,-4.5424,-4.5383,-4.5382,-4.5454,-4.5338,-4.5323,-4.5329,-4.5315,-4.5282,-4.5272,-4.5221,-4.5281,-4.5287,-4.5351,-4.5213,-4.5435,-4.5444,-4.5453,-4.559,-4.5612,-4.5632,0,0,0,0,0,-4.5379,-4.5467,-4.5426,-4.543,-4.5429,-4.5458,-4.5457,-4.5395,-4.5335,-4.5374,-4.534,-4.5273,-4.5342,-4.5288,-4.5294,-4.5359,-4.543,-4.5442,-4.5452,-4.5581,-4.5608,-4.5631,0,0,0,0,0,0,-4.5518,-4.546,-4.5414,-4.5492,-4.5481,-4.5435,-4.5483,-4.5426,-4.5432,-4.5419,-4.5343,-4.5337,-4.5407,-4.5389,-4.5331,-4.5462,-4.5375,-4.5388,-4.5471,-4.5496,-4.5517,-4.5519,-4.5215,0,0,0,0,0,-4.5558,-4.5584,-4.5533,-4.5606,-4.5603,-4.5545,-4.5554,-4.5508,-4.5493,-4.5488,-4.5458,-4.5448,-4.5466,-4.5481,-4.5495,-4.5588,-4.5579,-4.5636,-4.5656,-4.5674,-4.5685,-4.5733,-4.5758,-4.5494,-4.5494,-4.5493,0,0,-4.564,-4.5612,-4.5633,-4.5634,-4.5619,-4.565,-4.5541,-4.5578,-4.56,-4.5494,-4.5547,-4.5526,-4.5509,-4.5585,-4.5617,-4.5572,-4.5756,-4.5688,-4.5702,-4.5704,-4.5747,-4.5772,-4.5794,-4.5501,-4.55,-4.5499,0,0,-4.5805,-4.5787,-4.5845,-4.5834,-4.5813,-4.5774,-4.5789,-4.5752,-4.5733,-4.5785,-4.5707,-4.5733,-4.5767,-4.5758,-4.5758,-4.5923,-4.5862,-4.593,-4.6037,-4.6085,-4.6106,-4.6124,-4.6182,-4.6204,-4.5942,-4.5942,-4.5942,0,-4.591,-4.5951,-4.5883,-4.5925,-4.5928,-4.5833,-4.5893,-4.5885,-4.5872,-4.5876,-4.5826,-4.5867,-4.585,-4.5923,-4.5963,-4.5967,-4.5981,-4.5932,-4.6108,-4.6126,-4.6142,-4.6196,-4.6219,-4.595,-4.5949,-4.5949,-4.5948,0,-4.6082,-4.6112,-4.6162,-4.615,-4.6159,-4.621,-4.6151,-4.6168,-4.6122,-4.6088,-4.6144,-4.6119,-4.6127,-4.6142,-4.6097,-4.6209,-4.6182,-4.6122,-4.6032,-4.6176,-4.6226,-4.6247,-4.5962,-4.5959,-4.5957,-4.5955,0,0,-4.6332,-4.6282,-4.6302,-4.6295,-4.6267,-4.6289,-4.6337,-4.6344,-4.6361,-4.6355,-4.6393,-4.6425,-4.6369,-4.637,-4.6323,-4.6366,-4.6497,-4.63,-4.6298,-4.6337,-4.662,-4.6665,-4.669,-4.6457,-4.6461,-4.6464,-4.6621,0,-4.6488,-4.6564,-4.6505,-4.6593,-4.662,-4.6532,-4.6573,-4.6561,-4.6532,-4.6552,-4.652,-4.6544,-4.6468,-4.6468,-4.6506,-4.6473,-4.6553,-4.6461,-4.6493,-4.6495,-4.6498,-4.6716,-4.6764,-4.6913,-4.664,-4.6644,-4.6646,0,-4.668,-4.6682,-4.6772,-4.6738,-4.6748,-4.6786,-4.6788,-4.6808,-4.6793,-4.6769,-4.6771,-4.6714,-4.6759,-4.6673,-4.6735,-4.6674,-4.6683,-4.667,-4.6674,-4.6674,-4.6578,-4.6722,-4.6959,-4.6982,-4.6676,-4.6674,-4.6672,0,-4.6853,-4.6879,-4.6936,-4.6933,-4.6895,-4.6924,-4.691,-4.6891,-4.6899,-4.6902,-4.6907,-4.6916,-4.692,-4.6929,-4.6876,-4.6818,-4.6946,-4.6855,-4.6927,-4.6929,-4.6957,-4.6956,-4.7199,-4.6965,-4.6965,-4.6964,-4.6964,0,-4.7033,-4.7091,-4.7013,-4.7048,-4.7111,-4.7044,-4.7109,-4.7086,-4.707,-4.71,-4.7025,-4.7055,-4.6984,-4.7007,-4.6967,-4.7024,-4.7027,-4.701,-4.6998,-4.7016,-4.7018,-4.702,-4.7008,-4.697,-4.6969,-4.6968,-4.6967,0,-4.7236,-4.7186,-4.7242,-4.7202,-4.7193,-4.7242,-4.7208,-4.724,-4.7206,-4.7245,-4.725,-4.7198,-4.7222,-4.717,-4.7187,-4.716,-4.7242,-4.7214,-4.7246,-4.7238,-4.7313,-4.7306,-4.7565,-4.7596,-4.7344,-4.7346,-4.7348,0,-4.7353,-4.7396,-4.7361,-4.7375,-4.7365,-4.7389,-4.7397,-4.7334,-4.7345,-4.7332,-4.7366,-4.7383,-4.7393,-4.7436,-4.74,-4.7412,-4.7384,-4.7474,-4.7385,-4.7402,-4.7385,-4.7383,-4.7387,-4.7492,-4.7495,-4.7498,-4.75,0,-4.7568,-4.7541,-4.7555,-4.7561,-4.7573,-4.7575,-4.7571,-4.7588,-4.752,-4.7538,-4.756,-4.7568,-4.7585,-4.7604,-4.7608,-4.7595,-4.7537,-4.7528,-4.7545,-4.7563,-4.758,-4.7572,-4.7295,-4.7522,-4.752,-4.7518,-4.7517,-4.7516,-4.7731,-4.7765,-4.7746,-4.7764,-4.7755,-4.7754,-4.7782,-4.7752,-4.7769,-4.7777,-4.7739,-4.7771,-4.7756,-4.7756,-4.7749,-4.7773,-4.7733,-4.7758,-4.7764,-4.7771,-4.7783,-4.7577,-4.7774,-4.7773,-4.7773,-4.7772,-4.7772,0,-4.7941,-4.7924,-4.7942,-4.7939,-4.7955,-4.7898,-4.7892,-4.7909,-4.7937,-4.7928,-4.7939,-4.7966,-4.7984,-4.795,-4.7963,-4.7989,-4.7963,-4.7994,-4.7991,-4.7989,-4.7819,-4.7802,-4.8015,-4.8015,-4.8015,-4.8015,-4.8015,-4.8015,-4.8052,-4.8106,-4.8078,-4.8128,-4.8111,-4.814,-4.8142,-4.8141,-4.8133,-4.8166,-4.818,-4.8158,-4.8139,-4.815,-4.8164,-4.8154,-4.8162,-4.8203,-4.8184,-4.8025,-4.8001,-4.7978,-4.7962,-4.8205,-4.8206,-4.8351,-4.8353,-4.8354]},{"header":{"parameterUnit":"m.s-1","parameterCategory":1,"la1":30.2991,"la2":30.254,"lo1":-89.0895,"lo2":-89.0444,"dy":0.0017,"dx":0.0017,"nx":28,"ny":28,"refTime":"2024-05-17T03:00:00:Z","depth":0,"parameterNumber":3,"parameterNumberName":"V-component_of_WINDS"},"data":[0,0,0,0,0,0,0,0,0,0,0,0,0,0,0,0,0,0,0,0,0,0,0,0,0,0,0,0,0,0,0,0,0,0,0,0,0,0,0,0,0,0,0,0,0,0,0,0,0,0,0,0,0,0,0,0,0,0,2.7499,2.7499,0,2.7531,2.7531,2.7531,2.7537,2.7537,2.7537,2.7536,2.7567,2.7568,2.7569,0,0,0,0,0,0,0,0,0,0,0,0,0,2.7442,2.7443,2.7499,2.7499,2.75,2.7531,2.7531,2.7531,2.7537,2.7537,2.7536,2.7536,2.7567,2.7568,2.757,0,0,0,0,0,0,0,0,0,0,0,0,0,2.7469,2.7443,2.7499,2.7506,2.7507,2.753,2.7531,2.7532,2.7537,2.7537,2.7536,2.7536,2.7567,2.7568,2.757,2.7587,0,0,2.7575,2.7575,0,0,0,0,0,0,0,0,2.7468,2.7471,2.7505,2.7506,2.7507,2.753,2.7522,2.755,2.7537,2.7526,2.7536,2.7536,2.7555,2.7558,2.7564,2.7589,2.759,2.7575,2.7576,2.7576,2.7577,0,0,0,0,0,0,0,2.7466,2.747,2.7511,2.7505,2.7506,2.7508,2.7511,2.7528,2.7542,2.7527,2.7527,2.7531,2.7555,2.7563,2.7565,2.7591,2.7575,2.7576,2.7577,2.7578,2.7631,2.7632,0,0,0,0,0,0,2.7463,2.7468,2.751,2.7512,2.7486,2.7509,2.7513,2.7523,2.7542,2.7545,2.7531,2.7531,2.756,2.7563,2.7566,2.7588,2.7576,2.7578,2.7579,2.7631,2.7631,2.7632,0,0,0,0,0,0,2.7461,2.7466,2.7509,2.749,2.7496,2.751,2.7521,2.7523,2.7531,2.7545,2.7548,2.7536,2.756,2.7564,2.7582,2.7589,2.7579,2.758,2.763,2.7631,2.7632,2.7632,0,0,0,0,0,0,2.746,2.7466,2.7473,2.7491,2.7497,2.7525,2.7522,2.7524,2.7534,2.7534,2.7551,2.7553,2.756,2.758,2.7584,2.7591,2.7581,2.763,2.7631,2.7631,2.7632,2.7633,2.7634,0,0,0,0,0,2.7458,2.7472,2.7473,2.7478,2.7506,2.7525,2.7529,2.7537,2.7534,2.7541,2.7551,2.7552,2.7588,2.7582,2.7586,2.7594,2.7629,2.763,2.7631,2.7631,2.7633,2.7634,0,0,0,0,0,0,2.7454,2.7474,2.7476,2.7496,2.7509,2.7526,2.7536,2.7538,2.7552,2.7551,2.7561,2.7564,2.7582,2.759,2.7583,2.7613,2.7608,2.761,2.7607,2.7608,2.7609,2.7607,2.7583,0,0,0,0,0,2.7455,2.747,2.7486,2.7502,2.7509,2.7521,2.753,2.7535,2.7548,2.7554,2.7564,2.7577,2.7591,2.76,2.7614,2.7633,2.7637,2.7641,2.7642,2.7643,2.7645,2.7655,2.7658,2.7635,2.7635,2.7635,0,0,2.7459,2.7471,2.748,2.7502,2.7513,2.7527,2.7526,2.7541,2.7551,2.7556,2.7574,2.7582,2.7597,2.7616,2.7625,2.7623,2.7652,2.7644,2.7645,2.7646,2.7657,2.7659,2.7661,2.7636,2.7636,2.7636,0,0,2.7472,2.7483,2.7498,2.7509,2.7525,2.7533,2.7537,2.7553,2.7559,2.7578,2.7582,2.7594,2.7618,2.7628,2.7637,2.7654,2.7656,2.7658,2.7664,2.7675,2.7677,2.7678,2.7685,2.7687,2.766,2.766,2.766,0,2.7474,2.7496,2.7505,2.752,2.753,2.7535,2.755,2.756,2.7579,2.7586,2.7584,2.7614,2.7624,2.7646,2.765,2.7657,2.7661,2.7657,2.7676,2.7678,2.7679,2.7685,2.7688,2.766,2.766,2.766,2.766,0,2.7498,2.7513,2.7523,2.7542,2.7553,2.7568,2.7579,2.7588,2.7593,2.7601,2.762,2.7632,2.7649,2.7654,2.7658,2.7676,2.7675,2.7674,2.767,2.7681,2.7687,2.769,2.766,2.766,2.766,2.766,0,0,2.7509,2.7534,2.7537,2.7546,2.7565,2.7577,2.7592,2.7608,2.7616,2.763,2.7642,2.7663,2.7662,2.7672,2.7677,2.7687,2.77,2.7685,2.7685,2.7687,2.7721,2.7721,2.7724,2.7701,2.7702,2.7702,2.7719,0,2.7525,2.7553,2.7561,2.7584,2.7598,2.7604,2.7617,2.7629,2.7637,2.765,2.7659,2.7673,2.7672,2.7677,2.7687,2.7696,2.7707,2.7695,2.7713,2.7714,2.7709,2.7727,2.7727,2.7743,2.7722,2.7722,2.7723,0,2.7547,2.7562,2.7586,2.7603,2.7609,2.7621,2.7637,2.7649,2.7663,2.7668,2.7679,2.7684,2.7699,2.7695,2.7716,2.7708,2.7716,2.7722,2.7722,2.7725,2.7719,2.773,2.7748,2.7751,2.7726,2.7726,2.7726,0,2.7554,2.7579,2.7597,2.7604,2.7624,2.7633,2.7641,2.7655,2.7665,2.7678,2.7685,2.77,2.7708,2.772,2.7728,2.7724,2.7749,2.7745,2.7754,2.7754,2.7759,2.7759,2.7779,2.7764,2.7764,2.7764,2.7764,0,2.757,2.7585,2.76,2.7611,2.7628,2.7637,2.7654,2.7662,2.7675,2.7687,2.7693,2.7704,2.7715,2.7728,2.7735,2.7751,2.7755,2.776,2.7761,2.7759,2.7759,2.7765,2.7764,2.7764,2.7764,2.7764,2.7764,0,2.7581,2.7591,2.7611,2.7629,2.7633,2.7645,2.766,2.767,2.7679,2.7695,2.7699,2.7712,2.7727,2.7737,2.7757,2.7761,2.778,2.7781,2.7775,2.7776,2.7785,2.7784,2.781,2.7814,2.7795,2.7796,2.7796,0,2.7591,2.7602,2.7621,2.763,2.7639,2.7654,2.7664,2.7673,2.7683,2.77,2.7709,2.7725,2.7738,2.7763,2.7774,2.7789,2.7791,2.7799,2.7793,2.7791,2.7791,2.779,2.7792,2.78,2.78,2.78,2.78,0,2.7608,2.7613,2.7627,2.7643,2.7655,2.7668,2.7681,2.7688,2.77,2.7711,2.7727,2.7737,2.7758,2.7774,2.779,2.7798,2.7801,2.7802,2.7805,2.7803,2.78,2.7802,2.7778,2.7801,2.7801,2.7801,2.7801,2.7801,2.7619,2.7629,2.7644,2.766,2.7671,2.7683,2.7694,2.7704,2.7718,2.7735,2.774,2.7757,2.7771,2.7793,2.7802,2.7815,2.7814,2.7818,2.7819,2.782,2.782,2.7797,2.7818,2.7818,2.7818,2.7818,2.7818,0,2.7636,2.7646,2.766,2.7679,2.7691,2.7693,2.7708,2.7718,2.7733,2.7746,2.7759,2.7778,2.7793,2.7805,2.7821,2.7829,2.7831,2.7833,2.7833,2.7835,2.782,2.7816,2.7832,2.7832,2.7832,2.7832,2.7832,2.7832,2.7647,2.7665,2.7671,2.7695,2.7705,2.7722,2.773,2.7741,2.7752,2.7772,2.7785,2.7793,2.7806,2.7823,2.7837,2.784,2.7846,2.7847,2.7851,2.7837,2.7836,2.7834,2.7831,2.7849,2.7849,2.7864,2.7864,2.7865]}]]